Inquirer Daily News

Weather

Get conditions and forecasts for any City, State, ZIP code or Country:  
Northeast Philadelphia, PA
on Wednesday, February 27, 2013

Wednesday
Previous Day Next Day
Daily Summary
 ActualAverage (KTTN)Record (KTTN)
Temperature
Mean Temperature °F 37°F  
Max Temperature 51°F 45°F 72°F (1997)
Min Temperature 39°F 28°F 6°F (1934)
Degree Days
Heating Degree Days 20 28  
Month to date heating degree days 839  
Since 1 July heating degree days 3785  
Cooling Degree Days 0 0  
Month to date cooling degree days 0  
Year to date cooling degree days 0  
Moisture
Dew Point 41°F   
Average Humidity 84    
Maximum Humidity 100    
Minimum Humidity 61    
Precipitation
Precipitation 0.26 in 0.10 in 1.52 in (1958)
Month to date precipitation 2.21  
Year to date precipitation 5.37  
Wind
Wind Speed 14 mph   
Max Wind Speed 23 mph   
Max Gust Speed 32 mph   
Visibility 6 miles   
Events Rain   

Key: T is trace of precipitation, MM is missing value
Source: NWS Daily Summary
Time(EST)TemperatureDew PointHumidity Pressure Visibility Wind DirectionWind SpeedGust SpeedPrecipitationEvents Conditions
12:54 AM 39.9°F 37.9°F 93% 29.75 in 5.0 miles ENE 23.0 mph 32.2 mph 0.08 in Rain Light Rain
1:54 AM 41.0°F 39.0°F 93% 29.71 in 4.0 miles ENE 20.7 mph 27.6 mph 0.05 in Rain Light Rain
2:41 AM 42.8°F 39.2°F 87% 29.68 in 2.5 miles ENE 17.3 mph - 0.04 in Rain Light Rain
2:54 AM 42.1°F 39.9°F 92% 29.68 in 3.0 miles ENE 13.8 mph 23.0 mph 0.05 in Rain Light Rain
3:54 AM 42.1°F 39.9°F 92% 29.63 in 4.0 miles NE 19.6 mph 25.3 mph 0.03 in Rain Light Rain
4:54 AM 42.1°F 39.9°F 92% 29.60 in 6.0 miles ENE 20.7 mph 29.9 mph 0.01 in   Overcast
5:54 AM 42.8°F 41.0°F 93% 29.56 in 4.0 miles ENE 19.6 mph 29.9 mph N/A   Overcast
6:54 AM 43.0°F 42.1°F 97% 29.53 in 2.5 miles NE 18.4 mph 28.8 mph N/A   Overcast
7:18 AM 44.6°F 42.8°F 93% 29.52 in 1.8 miles ENE 15.0 mph - N/A   Overcast
7:54 AM 45.0°F 44.1°F 97% 29.54 in 1.5 miles ENE 12.7 mph 17.3 mph N/A   Overcast
8:42 AM 44.6°F 44.6°F 100% 29.54 in 2.0 miles ENE 5.8 mph - 0.01 in   Overcast
8:54 AM 46.0°F 45.0°F 96% 29.54 in 1.8 miles ENE 3.5 mph - 0.02 in Rain Light Rain
9:39 AM 46.4°F 46.4°F 100% 29.53 in 2.5 miles NE 3.5 mph - 0.01 in   Overcast
9:46 AM 46.4°F 46.4°F 100% 29.52 in 4.0 miles NE 10.4 mph - 0.02 in   Overcast
9:54 AM 46.9°F 46.0°F 97% 29.53 in 6.0 miles Calm Calm - 0.02 in   Overcast
10:22 AM 46.4°F 46.4°F 100% 29.53 in 8.0 miles NE 3.5 mph - N/A   Overcast
10:54 AM 48.0°F 46.9°F 96% 29.54 in 2.0 miles Calm Calm - N/A   Overcast
11:01 AM 48.2°F 46.4°F 93% 29.54 in 1.5 miles Calm Calm - N/A   Overcast
11:36 AM 48.2°F 46.4°F 93% 29.55 in 3.0 miles WSW 9.2 mph - N/A   Overcast
11:49 AM 48.2°F 46.4°F 93% 29.55 in 3.0 miles WSW 15.0 mph - 0.00 in Rain Light Rain
11:54 AM 48.0°F 46.9°F 96% 29.55 in 2.5 miles West 15.0 mph 24.2 mph 0.00 in Rain Light Rain
12:05 PM 46.4°F 44.6°F 93% 29.56 in 3.0 miles West 16.1 mph 21.9 mph 0.00 in Rain Light Rain
12:27 PM 48.2°F 44.6°F 87% 29.56 in 3.0 miles West 17.3 mph 21.9 mph 0.00 in   Overcast
12:35 PM 48.2°F 42.8°F 82% 29.56 in 10.0 miles West 17.3 mph 24.2 mph 0.00 in   Overcast
12:54 PM 51.1°F 44.1°F 77% 29.55 in 10.0 miles WNW 13.8 mph 24.2 mph 0.00 in   Mostly Cloudy
1:03 PM 50.0°F 42.8°F 76% 29.56 in 10.0 miles West 19.6 mph 25.3 mph N/A   Scattered Clouds
1:29 PM 51.8°F 41.0°F 67% 29.56 in 10.0 miles West 19.6 mph 28.8 mph N/A   Mostly Cloudy
1:52 PM 50.0°F 39.2°F 66% 29.57 in 10.0 miles WNW 18.4 mph 28.8 mph N/A   Scattered Clouds
1:54 PM 50.0°F 39.0°F 66% 29.57 in 10.0 miles WNW 16.1 mph 28.8 mph N/A   Scattered Clouds
2:54 PM 50.0°F 37.9°F 63% 29.60 in 10.0 miles West 19.6 mph 27.6 mph N/A   Mostly Cloudy
3:54 PM 48.9°F 37.0°F 64% 29.62 in 10.0 miles WNW 15.0 mph 20.7 mph N/A   Overcast
4:54 PM 48.9°F 37.0°F 64% 29.63 in 10.0 miles WNW 8.1 mph - N/A   Overcast
5:54 PM 48.0°F 36.0°F 63% 29.65 in 10.0 miles West 4.6 mph - N/A   Mostly Cloudy
6:54 PM 44.1°F 36.0°F 73% 29.66 in 10.0 miles NNW 3.5 mph - N/A   Mostly Cloudy
7:54 PM 46.0°F 37.0°F 71% 29.68 in 10.0 miles Calm Calm - N/A   Overcast
8:54 PM 46.4°F 37.4°F 71% 29.68 in 10.0 miles West 5.8 mph - N/A   Overcast
9:54 PM 46.9°F 35.1°F 63% 29.68 in 10.0 miles WSW 4.6 mph - N/A   Overcast
10:54 PM 46.0°F 33.1°F 61% 29.67 in 10.0 miles SW 3.5 mph - N/A   Overcast
11:54 PM 45.0°F 33.1°F 63% 29.65 in 10.0 miles Calm Calm - N/A   Overcast
Astronomy
Sunrise:06:36 AM (EST) Moon Rise:08:08 PM (EST)2/27
Sunset:05:49 PM (EST) Moon Set:07:09 AM (EST)2/27
Moon Phase
Feb. 27 Mar. 04 Mar. 11 Mar. 19 Mar. 27

Copyright © 2014 The Weather Underground, Inc.